This demonstration page uses our WeatherBlox Daily Observations layout. Learn more.

40.92945, -100.16068

Hourly Observations for October 11, 2019

Temp ( °F °C ) Dew Point ( °F °C ) Humidity (%) Winds ( mph kmh ) Pressure ( in mb ) Visibility ( mi km ) Precip ( " mm )
12:15 am 00:15 Cloudy 29 -1.5 22 -5.5 74 74 NW 20 31 30.31 1027 10 16.0934 0 0
12:35 am 00:35 Cloudy 29 -1.5 22 -5.6 74 74 NW 20 31 30.32 1027 10 16.0934 0 0
12:55 am 00:55 Cloudy 30 -1.2 22 -5.4 73 73 NW 23 37 30.32 1027 10 16.0934 0 0
1:15 am 01:15 Cloudy 30 -1.2 22 -5.6 72 72 NW 17 28 30.32 1027 10 16.0934 0 0
1:35 am 01:35 Cloudy 29 -1.6 22 -5.5 75 75 WNW 17 28 30.33 1027 10 16.0934 0 0
1:55 am 01:55 Cloudy 28 -2.2 22 -5.6 78 78 WNW 16 26 30.33 1027 10 16.0934 0 0
2:15 am 02:15 Cloudy 27 -2.6 22 -5.7 80 80 WNW 15 24 30.33 1027 10 16.0934 0 0
2:35 am 02:35 Partly Cloudy 26 -3.1 21 -6 81 81 NW 12 19 30.34 1027 10 16.0934 0 0
2:55 am 02:55 Partly Cloudy 26 -3.5 21 -5.9 84 84 WNW 13 20 30.34 1028 10 16.0934 0 0
3:15 am 03:15 Partly Cloudy 26 -3.6 21 -6 84 84 WNW 10 17 30.34 1028 10 16.0934 0 0
3:35 am 03:35 Clear 25 -3.8 21 -6.2 84 84 WNW 13 20 30.36 1028 10 16.0934 0 0
3:55 am 03:55 Clear 25 -3.7 20 -6.5 81 81 WNW 14 22 30.36 1028 10 16.0934 0 0
4:15 am 04:15 Clear 25 -4 20 -6.5 83 83 WNW 13 20 30.36 1028 10 16.0934 0 0
4:35 am 04:35 Clear 25 -4 20 -6.5 83 83 NW 9 15 30.35 1028 10 16.0934 0 0
4:55 am 04:55 Clear 25 -4.1 20 -6.5 84 84 NW 9 15 30.35 1028 10 16.0934 0 0
5:15 am 05:15 Clear 24 -4.2 20 -6.4 85 85 WNW 10 17 30.35 1028 10 16.0934 0 0
5:35 am 05:35 Clear 24 -4.2 20 -6.4 85 85 WNW 10 17 30.36 1028 10 16.0934 0 0
5:55 am 05:55 Clear 24 -4.3 20 -6.4 85 85 WNW 8 13 30.37 1028 10 16.0934 0 0
6:15 am 06:15 Clear 24 -4.2 20 -6.4 85 85 WNW 8 13 30.37 1028 10 16.0934 0 0
6:35 am 06:35 Clear 24 -4.3 21 -6.3 86 86 W 8 13 30.38 1029 10 16.0934 0 0
6:55 am 06:55 Mostly Cloudy 25 -4 21 -6 86 86 WNW 9 15 30.37 1028 10 16.0934 0 0
7:15 am 07:15 Mostly Cloudy 25 -3.8 21 -6.1 84 84 WNW 9 15 30.37 1028 10 16.0934 0 0
7:35 am 07:35 Clear 25 -3.9 21 -6.2 84 84 WNW 10 17 30.37 1028 10 16.0934 0 0
7:55 am 07:55 Sunny 25 -4 21 -6.3 84 84 WNW 12 19 30.38 1029 10 16.0934 0 0
8:15 am 08:15 Sunny 25 -3.7 20 -6.5 81 81 WNW 13 20 30.38 1029 10 16.0934 0 0
8:35 am 08:35 Sunny 26 -3.5 19 -7.2 76 76 WNW 12 19 30.37 1029 10 16.0934 0 0
8:55 am 08:55 Sunny 26 -3.2 19 -7.4 73 73 WNW 14 22 30.38 1029 10 16.0934 0 0
9:15 am 09:15 Sunny 27 -2.6 19 -7.4 70 70 WNW 16 26 30.37 1029 10 16.0934 0 0
9:35 am 09:35 Sunny 28 -2.1 19 -7.1 69 69 WNW 15 24 30.38 1029 10 16.0934 0 0
9:55 am 09:55 Sunny 29 -1.6 19 -7 67 67 WNW 22 35 30.37 1029 10 16.0934 0 0
10:15 am 10:15 Sunny 29 -1.5 19 -7 67 67 WNW 21 33 30.37 1029 10 16.0934 0 0
10:35 am 10:35 Partly Cloudy 30 -1.2 20 -6.8 66 66 WNW 21 33 30.37 1028 10 16.0934 0 0
10:55 am 10:55 Partly Cloudy 31 -0.7 19 -7 63 63 NNW 17 28 30.36 1028 10 16.0934 0 0
11:15 am 11:15 Sunny 32 0 20 -6.5 62 62 NW 16 26 30.35 1028 10 16.0934 0 0
11:35 am 11:35 Partly Cloudy 32 0.2 20 -6.5 61 61 NW 18 30 30.35 1028 10 16.0934 0 0
11:55 am 11:55 Mostly Cloudy 33 0.4 20 -6.7 59 59 WNW 22 35 30.34 1028 10 16.0934 0 0
12:15 pm 12:15 Cloudy 34 1 20 -6.6 57 57 NW 17 28 30.34 1027 10 16.0934 0 0
12:55 pm 12:55 Mostly Cloudy 35 1.7 21 -6.3 56 56 WNW 23 37 30.32 1027 10 16.0934 0 0
1:15 pm 13:15 Mostly Cloudy 35 1.9 20 -6.5 54 54 WNW 22 35 30.32 1027 10 16.0934 0 0
1:35 pm 13:35 Mostly Cloudy 36 2.3 21 -6 55 55 WNW 17 28 30.31 1027 10 16.0934 0 0
1:55 pm 13:55 Partly Cloudy 36 2.4 20 -6.4 53 53 WNW 20 31 30.3 1026 10 16.0934 0 0
2:15 pm 14:15 Partly Cloudy 38 3.2 21 -6 51 51 WNW 17 28 30.28 1025 10 16.0934 0 0
2:35 pm 14:35 Partly Cloudy 39 3.7 20 -6.4 48 48 NW 18 30 30.26 1025 10 16.0934 0 0
2:55 pm 14:55 Mostly Cloudy 41 4.9 20 -6.7 43 43 WNW 17 28 30.25 1024 10 16.0934 0 0
3:15 pm 15:15 Partly Cloudy 42 5.5 19 -7.2 40 40 WNW 25 41 30.23 1024 10 16.0934 0 0
3:35 pm 15:35 Sunny 41 5.1 19 -7.4 40 40 NW 25 41 30.24 1024 10 16.0934 0 0
3:55 pm 15:55 Sunny 42 5.4 19 -7.2 40 40 WNW 23 37 30.23 1024 10 16.0934 0 0
4:15 pm 16:15 Sunny 42 5.5 19 -7.4 39 39 NW 21 33 30.23 1024 10 16.0934 0 0
4:35 pm 16:35 Sunny 42 5.5 18 -7.8 38 38 WNW 23 37 30.22 1023 10 16.0934 0 0
4:55 pm 16:55 Sunny 42 5.6 18 -8 37 37 WNW 24 39 30.22 1023 10 16.0934 0 0
5:15 pm 17:15 Sunny 42 5.6 17 -8.1 37 37 WNW 23 37 30.22 1023 10 16.0934 0 0
5:35 pm 17:35 Sunny 42 5.7 18 -7.7 38 38 NW 17 28 30.21 1023 10 16.0934 0 0
5:55 pm 17:55 Sunny 42 5.5 17 -8.4 36 36 NW 24 39 30.21 1023 10 16.0934 0 0
6:15 pm 18:15 Sunny 42 5.5 18 -8 37 37 NW 17 28 30.2 1023 10 16.0934 0 0
6:35 pm 18:35 Sunny 41 5.2 17 -8.3 37 37 WNW 15 24 30.21 1023 10 16.0934 0 0
6:55 pm 18:55 Sunny 40 4.5 18 -8 40 40 WNW 14 22 30.21 1023 10 16.0934 0 0
7:15 pm 19:15 Clear 38 3.5 19 -7.5 45 45 WNW 9 15 30.22 1023 10 16.0934 0 0
7:35 pm 19:35 Clear 36 2 20 -6.8 53 53 W 7 11 30.23 1024 10 16.0934 0 0
7:55 pm 19:55 Clear 32 0.2 20 -6.5 61 61 W 8 13 30.25 1024 10 16.0934 0 0
8:15 pm 20:15 Clear 32 -0.2 20 -6.4 63 63 W 7 11 30.25 1024 10 16.0934 0 0
8:35 pm 20:35 Clear 30 -1.2 20 -6.6 67 67 SW 7 11 30.25 1024 10 16.0934 0 0
8:55 pm 20:55 Clear 30 -1.2 20 -6.4 68 68 W 6 9 30.24 1024 10 16.0934 0 0
9:15 pm 21:15 Clear 30 -1.1 20 -6.4 68 68 WSW 5 7 30.24 1024 10 16.0934 0 0
9:35 pm 21:35 Clear 30 -1.1 21 -6.2 69 69 WSW 5 7 30.24 1024 10 16.0934 0 0
9:55 pm 21:55 Clear 29 -1.4 21 -6.2 70 70 SW 5 7 30.24 1024 10 16.0934 0 0
10:15 pm 22:15 Clear 29 -1.6 20 -6.5 70 70 WSW 6 9 30.24 1024 10 16.0934 0 0
10:35 pm 22:35 Clear 29 -1.6 20 -6.5 70 70 WSW 6 9 30.23 1024 10 16.0934 0 0
10:55 pm 22:55 Clear 31 -0.8 20 -6.4 66 66 W 5 7 30.23 1024 10 16.0934 0 0
11:15 pm 23:15 Clear 32 0 21 -6.3 63 63 W 8 13 30.21 1023 10 16.0934 0 0
11:35 pm 23:35 Clear 30 -1 20 -6.5 67 67 WSW 8 13 30.22 1023 10 16.0934 0 0
11:55 pm 23:55 Clear 28 -2 20 -6.5 72 72 WSW 7 11 30.23 1024 10 16.0934 0 0

Powered by AerisWeather